CST,Max TemperatureF,Mean TemperatureF,Min TemperatureF,Max Dew PointF,MeanDew PointF,Min DewpointF,Max Humidity, Mean Humidity, Min Humidity, Max Sea Level PressureIn, Mean Sea Level PressureIn, Min Sea Level PressureIn, Max VisibilityMiles, Mean VisibilityMiles, Min VisibilityMiles, Max Wind SpeedMPH, Mean Wind SpeedMPH, Max Gust SpeedMPH,PrecipitationIn, CloudCover, Events, WindDirDegrees
2012-12-1,75,66,54,61,56,47,87,72,53,29.99,29.88,29.78,10,10,7,25,14,38,0.00,5,,185
2012-12-2,70,56,43,59,49,40,93,75,47,30.04,29.96,29.88,10,10,8,21,5,29,0.00,1,,171
2012-12-3,73,65,55,60,56,44,79,67,55,30.01,29.84,29.76,10,10,10,34,20,41,0.04,5,Rain,187
2012-12-4,64,50,37,45,32,23,73,51,21,30.34,30.22,30.03,10,10,10,14,9,,0.00,0,,360
2012-12-5,63,46,30,36,30,26,85,58,28,30.35,30.23,30.04,10,10,10,13,4,,0.00,0,,143
2012-12-6,60,50,39,47,42,33,83,73,60,30.02,29.91,29.83,10,10,10,16,6,23,0.00,4,,150
2012-12-7,55,53,51,52,49,46,96,88,77,29.91,29.86,29.81,10,6,1,9,3,,0.00,8,,45
2012-12-8,51,48,44,48,44,41,94,87,82,29.97,29.91,29.84,6,5,4,12,7,,0.00,8,,41
2012-12-9,50,39,28,46,36,12,93,75,45,30.14,29.92,29.80,10,7,2,21,9,29,0.01,7,Rain,349
2012-12-10,35,27,19,16,12,9,71,58,40,30.19,30.13,30.09,10,10,10,18,12,26,0.00,2,,307
2012-12-11,46,32,19,18,15,11,71,53,28,30.21,30.15,30.11,10,10,10,8,5,,0.00,0,,185
2012-12-12,51,38,24,19,15,11,69,43,20,30.30,30.22,30.17,10,10,10,18,9,24,0.00,0,,170
2012-12-13,60,50,39,25,20,15,41,33,23,30.21,30.16,30.10,10,10,10,25,16,34,0.00,0,,180
2012-12-14,55,50,44,45,33,23,87,57,33,30.13,29.92,29.70,10,10,7,24,13,32,0.12,7,Rain-Thunderstorm,164
2012-12-15,63,54,45,46,41,37,90,68,43,29.74,29.68,29.59,10,10,10,24,17,36,0.00,1,,200
2012-12-16,55,44,32,41,37,29,96,79,57,29.80,29.73,29.65,10,8,4,13,4,,0.00,2,,339
2012-12-17,55,46,37,36,34,28,89,77,35,29.86,29.80,29.75,10,7,3,12,8,,0.00,4,Rain,279
2012-12-18,61,48,36,36,32,28,86,65,29,29.85,29.78,29.70,10,10,10,12,5,,0.00,0,,172
2012-12-19,64,48,33,58,45,29,88,75,63,29.83,29.59,29.42,10,10,8,20,8,24,0.00,4,,91
2012-12-20,42,36,28,37,22,13,87,61,39,30.35,30.06,29.55,10,9,2,31,21,45,0.00,3,Rain-Snow,300
2012-12-21,52,36,19,22,18,14,85,56,27,30.41,30.33,30.24,10,10,10,9,2,,0.00,0,,119
2012-12-22,62,44,25,24,18,13,75,38,15,30.22,30.07,29.96,10,10,10,21,7,26,0.00,0,,187
2012-12-23,51,40,28,32,27,23,82,65,46,29.99,29.93,29.86,10,8,5,15,5,,0.00,0,,349
2012-12-24,35,28,21,22,19,16,85,73,54,30.13,30.06,29.98,10,7,4,18,8,26,0.00,0,,6
2012-12-25,28,26,21,20,15,9,75,67,55,30.21,30.12,30.08,10,9,8,28,19,37,0.00,6,,23
2012-12-26,34,23,12,17,12,8,81,66,48,30.30,30.23,30.17,10,10,10,20,11,26,0.00,2,,360
2012-12-27,39,30,21,27,22,17,82,71,53,30.15,30.03,29.94,10,10,9,17,6,24,0.00,1,,148
2012-12-28,35,29,21,27,21,13,92,71,55,30.17,30.04,29.98,10,8,4,15,6,,0.00,4,,309
2012-12-29,41,28,14,15,13,9,81,60,35,30.42,30.34,30.19,10,10,7,12,8,,0.00,0,,260
2012-12-30,44,32,19,25,20,15,82,61,38,30.42,30.33,30.22,10,10,10,20,8,25,0.00,0,,175
2012-12-31,37,36,35,37,34,22,100,92,54,30.20,30.08,29.99,10,4,1,12,7,,0.12,8,Rain-Snow,108